Location: Arrington
(35.8681°N, 86.7092°W)
Time: 10:13:33
(UTC+00:00)

Cosmos 1151 Rocket - Pass Details

Date: 23 November 2019
Orbit: 593 x 616 km, 82.5° (Epoch: 10 December)

Event Time Altitude Azimuth Distance (km) Brightness Sun altitude
Exits shadow 10:36:44 54° 350° (N) 741 3.2 -22.9°
Maximum altitude 10:37:42 87° 267° (W) 611 2.9 -22.7°
Drops below altitude 10° 10:42:00 10° 175° (S) 1,937 5.8 -21.8°
Sets 10:44:11 0° 175° (S) 2,832 6.6 -21.4°
